GW6813 Weather Reports


Display with metric or nautical units.
time (UTC)temp
F
wind
direction
speed
MPH
gust
MPH
rain 1hr
in
rain 24hr
in
rain mn
in
humidity
%
barometer
mb
20260504110315 56 113 6.0 9.0 0.00 0.00 0.00 46 994.6
20260504100315 55 113 3.0 8.0 0.00 0.00 0.00 46 994.9
20260504081815 54 113 2.0 7.0 0.00 0.00 0.00 48 997.0
20260504081315 54 113 3.0 7.0 0.00 0.00 0.00 48 997.0
20260504080814 54 135 0.0 6.0 0.00 0.00 0.00 49 997.0
20260504080316 54 158 0.0 5.0 0.00 0.00 0.00 49 997.0
20260504070314 55 68 2.0 5.0 0.00 0.00 0.00 47 998.0
20260504050314 53 180 0.0 1.0 0.00 0.00 0.00 53 1000.3
20260504045814 53 203 0.0 0.0 0.00 0.00 0.00 54 1000.3
20260504045314 53 158 0.0 0.0 0.00 0.00 0.00 53 1000.3
20260504044814 53 270 0.0 0.0 0.00 0.00 0.00 53 1000.3
20260504044313 54 225 0.0 0.0 0.00 0.00 0.00 53 1000.3
20260504043814 54 203 0.0 0.0 0.00 0.00 0.00 54 1000.3
20260504043314 54 203 0.0 0.0 0.00 0.00 0.00 54 1000.7
20260504042814 54 203 0.0 0.0 0.00 0.00 0.00 54 1000.7
20260504042317 55 225 0.0 0.0 0.00 0.00 0.00 54 1001.0
20260504041815 55 203 0.0 0.0 0.00 0.00 0.00 53 1001.0
20260504041313 55 203 0.0 0.0 0.00 0.00 0.00 51 1001.0
20260504040813 55 203 0.0 0.0 0.00 0.00 0.00 51 1001.0
20260504040314 56 203 0.0 0.0 0.00 0.00 0.00 51 1001.0
20260504035813 56 225 0.0 0.0 0.00 0.00 0.00 50 1001.4
20260504035313 57 203 0.0 0.0 0.00 0.00 0.00 47 1001.4
20260504034814 57 203 0.0 0.0 0.00 0.00 0.00 47 1001.7
20260504034313 57 225 0.0 0.0 0.00 0.00 0.00 48 1001.7
20260504033814 57 225 0.0 0.0 0.00 0.00 0.00 46 1001.7
20260504033314 58 203 0.0 0.0 0.00 0.00 0.00 46 1002.0
20260504032814 58 225 0.0 0.0 0.00 0.00 0.00 45 1002.0
20260504032314 59 203 0.0 0.0 0.00 0.00 0.00 43 1002.0
20260504031814 59 203 0.0 0.0 0.00 0.00 0.00 42 1002.0
20260504031316 59 225 0.0 0.0 0.00 0.00 0.00 41 1002.0
20260504030814 60 225 0.0 2.0 0.00 0.00 0.00 40 1002.0
20260504030313 60 225 0.0 2.0 0.00 0.00 0.00 38 1002.0
20260504025813 61 203 0.0 2.0 0.00 0.00 0.00 36 1002.0
20260504025314 62 180 0.0 2.0 0.00 0.00 0.00 36 1002.0
20260504024814 62 180 0.0 2.0 0.00 0.00 0.00 34 1002.0
20260504024320 62 180 0.0 2.0 0.00 0.00 0.00 34 1002.0
20260504023814 63 180 0.0 4.0 0.00 0.00 0.00 34 1002.0
20260504023314 63 203 0.0 4.0 0.00 0.00 0.00 32 1002.0
20260504022815 63 203 0.0 4.0 0.00 0.00 0.00 32 1002.0
20260504022314 64 180 0.0 4.0 0.00 0.00 0.00 31 1002.0
20260504021813 64 180 0.0 4.0 0.00 0.00 0.00 31 1002.0
20260504021313 64 180 0.0 5.0 0.00 0.00 0.00 30 1002.4
20260504020814 65 158 0.0 5.0 0.00 0.00 0.00 30 1002.4
20260504020313 65 158 0.0 5.0 0.00 0.00 0.00 30 1002.4
20260504015813 66 203 0.0 5.0 0.00 0.00 0.00 29 1002.4
20260504015313 66 180 0.0 5.0 0.00 0.00 0.00 29 1002.4
20260504014814 66 180 0.0 5.0 0.00 0.00 0.00 28 1002.4
20260504014314 66 248 2.0 5.0 0.00 0.00 0.00 28 1002.4
20260504013815 66 270 4.0 5.0 0.00 0.00 0.00 27 1002.4
20260504013314 67 225 0.0 5.0 0.00 0.00 0.00 27 1002.4
20260504012814 67 45 1.0 5.0 0.00 0.00 0.00 27 1002.4
20260504012314 67 315 2.0 5.0 0.00 0.00 0.00 26 1002.4
20260504011814 68 23 2.0 5.0 0.00 0.00 0.00 26 1002.4
20260504011314 68 270 5.0 6.0 0.00 0.00 0.00 25 1002.4
20260504010813 69 113 0.0 6.0 0.00 0.00 0.00 25 1002.4
20260504010314 69 158 1.0 6.0 0.00 0.00 0.00 25 1002.4
20260504005814 69 68 0.0 6.0 0.00 0.00 0.00 24 1002.7
20260504005314 69 270 2.0 6.0 0.00 0.00 0.00 24 1002.7
20260504004814 70 158 0.0 6.0 0.00 0.00 0.00 24 1002.7
20260504004314 70 113 0.0 6.0 0.00 0.00 0.00 24 1002.7
20260504003813 71 113 2.0 6.0 0.00 0.00 0.00 24 1002.7
20260504003314 71 180 0.0 6.0 0.00 0.00 0.00 24 1002.7